Weather in Moa

Cuba     20°39′07″N   74°56′11″W
temp.,
°C
wind,
m/s
gust,
m/s
humid.,
%
clouds,
%
prec.,
mm/h
press.,
hPa
HPBL,
m
13 may, thu
thu1323:00+26ese688520 0.0 1017506
02:00+25ese568566 0.0 1016473
05:00+25ese57833 0.0 1015513
08:00+27ese68783 0.1 1016722
11:00+28e77735 0.0 1016760
14:00+29e89725 0.0 1014630
17:00+27e797715 0.0 1013577
20:00+26e79815 0.0 1014510
14 may, fri
fri1423:00+26ese568219 0.0 1016451
02:00+25ese45835 0.0 1015541
05:00+25ese35805 0.0 1014531
08:00+26e56727 0.0 1016847
11:00+28e66644 0.0 1016931
14:00+28ene66685 0.0 1014756
17:00+28ne56692 0.0 1013755
20:00+27ene46800 0.0 1015511
15 may, sat
sat1523:00+26ene45842 0.1 1016482
02:00+25ese468617 0.2 1014403
05:00+25ese45843 0.2 1014363
08:00+26ese467814 0.4 1016513
11:00+28e55682 0.0 1016806
14:00+28ene66685 0.0 1015713
17:00+27ne66715 0.0 1014878
20:00+26ene568227 0.1 1015644
16 may, sun
sun1623:00+26ene678235 0.6 1016643
02:00+25e578476 1.3 1015594
05:00+25e568515 0.2 1014552
08:00+26e568039 0.4 1016793
11:00+27e66725 0.2 1017934
14:00+28ene67705 0.2 1015766
17:00+27ene677413 0.1 1015951
20:00+26ene688188 0.2 1016726
17 may, mon
mon1723:00+26e7980100 0.8 1017794
02:00+25ese578278 1.0 1015646
05:00+25ese468399 0.1 1014594
08:00+27e577878 0.6 1016800
11:00+28e667010 0.4 1016983
14:00+28ene787175 0.5 1015814
17:00+25ese5784100 5.3 1014528
20:00+25s3386100 6.2 1016168